Regional Weather Roundup
Issued by NWS

Home | Current Version | Previous Version | Graphics & Text | Print | Product List | Glossary On
Versions: 1 2 3 4 5 6 7 8 9 10 11 12 13 14 15 16 17 18 19 20 21 22 23 24 25 26 27 28 29 30 31 32 33 34 35 36 37 38 39 40 41 42 43 44 45 46 47 48 49 50
000
ASUS45 KBOI 041610
RWRID

IDAHO REGIONAL WEATHER ROUNDUP
NATIONAL WEATHER SERVICE BOISE ID
1000 AM MDT FRI SEP 04 2015

NOTE: "FAIR" INDICATES FEW OR NO CLOUDS BELOW 12000 FEET
WITH NO SIGNIFICANT WEATHER AND/OR OBSTRUCTIONS TO VISIBILITY

IDZ012-014-041700-
SOUTHWEST IDAHO


CITY           SKY/WX    TMP DP  RH WIND       PRES   REMARKS
BOISE          SUNNY     54  40  59 W3        29.84F
CALDWELL       SUNNY     55  34  44 NW12      29.86F
MOUNTAIN HOME  CLOUDY    56  39  52 W10       29.85S
$$

IDZ016-017-041700-
SOUTHCENTRAL IDAHO


CITY           SKY/WX    TMP DP  RH WIND       PRES   REMARKS
BURLEY         CLOUDY    59  40  49 W6        29.87S
JEROME         PTSUNNY   56  41  57 S5        29.88S
TWIN FALLS     PTSUNNY   62  34  35 VRB3      29.87F
$$

IDZ019>023-041700-
SOUTHEAST IDAHO


CITY           SKY/WX    TMP DP  RH WIND       PRES   REMARKS
IDAHO FALLS    MOSUNNY   57  39  51 SW16      29.91S
POCATELLO      MOSUNNY   60  38  43 SW6       29.90F
REXBURG        MOSUNNY   56  39  53 SW5       29.92S
$$

IDZ006-010-011-018-031-032-041700-
CENTRAL IDAHO MOUNTAINS


CITY           SKY/WX    TMP DP  RH WIND       PRES   REMARKS
MCCALL         SUNNY     45  41  86 S3        29.91S
HAILEY         PTSUNNY   57  43  58 W8        29.92S
STANLEY          N/A     39  36  89 VRB3      29.98F
SALMON         CLOUDY    46  45  93 CALM      29.98F
CHALLIS        LGT RAIN  45  42  89 N3        29.98S
$$

IDZ002-004-006-007-026-041700-
NORTHERN IDAHO


CITY           SKY/WX    TMP DP  RH WIND       PRES   REMARKS
LEWISTON       SUNNY     52  43  71 CALM      29.95F
LOWELL           N/A     51  46  83 CALM      29.96F
COEUR D`ALENE  SUNNY     54  43  66 N17       29.96F
MULLAN PASS    PTSUNNY   39  36  89 MISG      29.98S
$$


USA.gov is the U.S. government's official web portal to all federal, state and local government web resources and services.